EW5637 Weather Reports


Display with metric or nautical units.
time (UTC)temp
F
wind
direction
speed
MPH
gust
MPH
rain 1hr
in
rain 24hr
in
rain mn
in
humidity
%
barometer
mb
20260503220057 59 252 9.0 18.0 0.00 0.00 0.00 40 1013.3
20260503215537 58 271 8.0 18.0 0.00 0.00 0.00 40 1013.2
20260503215040 58 290 9.0 14.0 0.00 0.00 0.00 39 1013.2
20260503214554 59 240 4.0 16.0 0.00 0.00 0.00 37 1013.3
20260503214040 59 259 9.0 16.0 0.00 0.00 0.00 37 1013.3
20260503213539 59 281 7.0 13.0 0.00 0.00 0.00 40 1013.2
20260503213054 59 269 7.0 21.0 0.00 0.00 0.00 39 1013.3
20260503212537 59 267 8.0 24.0 0.00 0.00 0.00 39 1013.2
20260503212042 59 261 11.0 24.0 0.00 0.00 0.00 37 1013.2
20260503211550 59 279 12.0 24.0 0.00 0.00 0.00 38 1013.1
20260503211040 59 303 6.0 19.0 0.00 0.00 0.00 40 1013.2
20260503210540 59 288 9.0 19.0 0.00 0.00 0.00 40 1013.3
20260503210056 59 277 7.0 13.0 0.00 0.00 0.00 38 1013.1
20260503205541 59 273 5.0 13.0 0.00 0.00 0.00 40 1013.1
20260503205038 59 294 7.0 13.0 0.00 0.00 0.00 39 1013.3
20260503204606 59 210 7.0 15.0 0.00 0.00 0.00 39 1013.1
20260503204040 60 311 7.0 17.0 0.00 0.00 0.00 36 1013.3
20260503203541 59 246 5.0 17.0 0.00 0.00 0.00 40 1013.3
20260503203056 60 278 11.0 17.0 0.00 0.00 0.00 38 1013.3
20260503202541 60 263 6.0 23.0 0.00 0.00 0.00 38 1013.4
20260503202041 59 283 7.0 23.0 0.00 0.00 0.00 43 1013.4
20260503201545 59 286 13.0 20.0 0.00 0.00 0.00 40 1013.4
20260503201038 58 286 10.0 17.0 0.00 0.00 0.00 41 1013.4
20260503200540 57 275 12.0 20.0 0.00 0.00 0.00 42 1013.3
20260503200046 58 306 10.0 20.0 0.00 0.00 0.00 42 1013.5
20260503195540 57 288 10.0 18.0 0.00 0.00 0.00 41 1013.6
20260503195037 58 309 11.0 17.0 0.00 0.00 0.00 40 1013.6
20260503194607 58 319 9.0 16.0 0.00 0.00 0.00 43 1013.6
20260503194041 57 315 12.0 18.0 0.00 0.00 0.00 41 1013.7
20260503193542 58 276 7.0 18.0 0.00 0.00 0.00 42 1013.7
20260503193047 57 320 10.0 18.0 0.00 0.00 0.00 38 1013.9
20260503192541 57 286 8.0 19.0 0.00 0.00 0.00 42 1013.8
20260503192041 58 281 12.0 23.0 0.00 0.00 0.00 36 1014.0
20260503191600 58 314 14.0 23.0 0.00 0.00 0.00 40 1014.0
20260503191042 58 267 8.0 19.0 0.00 0.00 0.00 40 1014.0
20260503190541 58 204 9.0 19.0 0.00 0.00 0.00 40 1014.0
20260503190058 58 287 11.0 20.0 0.00 0.00 0.00 43 1014.1
20260503185537 58 252 11.0 20.0 0.00 0.00 0.00 40 1014.1
20260503185041 58 264 5.0 16.0 0.00 0.00 0.00 45 1014.1
20260503184546 57 331 10.0 16.0 0.00 0.00 0.00 39 1014.1
20260503184041 57 242 10.0 19.0 0.00 0.00 0.00 45 1014.3
20260503183542 57 272 11.0 20.0 0.00 0.00 0.00 37 1014.3
20260503183101 57 308 9.0 20.0 0.00 0.00 0.00 40 1014.4
20260503182540 57 297 13.0 20.0 0.00 0.00 0.00 42 1014.4
20260503182040 57 303 5.0 21.0 0.00 0.00 0.00 43 1014.3
20260503181550 56 238 9.0 21.0 0.00 0.00 0.00 43 1014.3
20260503181040 56 298 8.0 24.0 0.00 0.00 0.00 41 1014.5
20260503180537 56 284 8.0 24.0 0.00 0.00 0.00 43 1014.5
20260503180105 56 263 5.0 18.0 0.00 0.00 0.00 41 1014.5
20260503175537 56 183 7.0 17.0 0.00 0.00 0.00 40 1014.5
20260503175040 56 252 12.0 17.0 0.00 0.00 0.00 40 1014.6
20260503174549 55 342 7.0 17.0 0.00 0.00 0.00 40 1014.5
20260503174041 55 264 7.0 20.0 0.00 0.00 0.00 43 1014.6
20260503173538 55 317 12.0 20.0 0.00 0.00 0.00 44 1014.7
20260503173134 55 317 9.0 20.0 0.00 0.00 0.00 45 1014.9
20260503172540 54 323 12.0 20.0 0.00 0.00 0.00 40 1014.8
20260503172039 54 291 8.0 14.0 0.00 0.00 0.00 41 1014.7
20260503171549 54 229 3.0 15.0 0.00 0.00 0.00 47 1014.8
20260503171045 54 267 9.0 20.0 0.00 0.00 0.00 41 1014.9
20260503170541 54 307 10.0 20.0 0.00 0.00 0.00 42 1014.9
20260503150541 50 285 12.0 22.0 0.00 0.00 0.00 46 1016.1
20260503131042 45 314 12.0 18.0 0.00 0.00 0.00 57 1016.3
20260503130542 45 294 10.0 17.0 0.00 0.00 0.00 59 1016.4
20260503130104 45 311 11.0 19.0 0.00 0.00 0.00 56 1016.4
20260503110540 39 292 6.0 10.0 0.00 0.00 0.00 67 1015.5
20260503081555 38 263 5.0 8.0 0.00 0.00 0.00 69 1013.9
20260503081040 38 270 5.0 8.0 0.00 0.00 0.00 70 1013.9
20260503080541 38 261 5.0 10.0 0.00 0.00 0.00 70 1013.9
20260503072541 39 281 3.0 7.0 0.00 0.00 0.00 69 1013.7
20260503072041 39 283 3.0 9.0 0.00 0.00 0.00 69 1013.6
20260503071550 39 288 5.0 10.0 0.00 0.00 0.00 69 1013.6
20260503071040 39 294 6.0 10.0 0.00 0.00 0.00 68 1013.5
20260503070541 39 294 4.0 10.0 0.00 0.00 0.00 68 1013.4
20260503055041 40 298 8.0 13.0 0.00 0.00 0.00 69 1013.5
20260503054550 40 309 8.0 13.0 0.00 0.00 0.00 70 1013.4
20260503054041 40 295 10.0 13.0 0.00 0.00 0.00 71 1013.5
20260503053540 40 293 8.0 13.0 0.00 0.00 0.00 71 1013.5
20260503053054 39 301 8.0 11.0 0.00 0.00 0.00 73 1013.6
20260503052539 39 317 6.0 9.0 0.00 0.00 0.00 73 1013.5
20260503052040 39 317 5.0 6.0 0.00 0.00 0.00 73 1013.4
20260503051551 39 318 4.0 9.0 0.00 0.00 0.00 74 1013.5
20260503051038 39 315 4.0 9.0 0.00 0.00 0.00 74 1013.5
20260503050539 39 321 4.0 7.0 0.00 0.00 0.00 73 1013.5
20260503050052 40 331 3.0 9.0 0.00 0.00 0.00 73 1013.4
20260503045540 41 324 5.0 9.0 0.00 0.00 0.00 71 1013.6
20260503045040 41 314 5.0 9.0 0.00 0.00 0.00 70 1013.8
20260503044555 42 275 3.0 9.0 0.00 0.00 0.00 69 1013.8
20260503044039 42 273 5.0 13.0 0.00 0.00 0.00 69 1013.8
20260503043539 42 261 6.0 13.0 0.00 0.00 0.00 69 1013.9
20260503043054 42 245 4.0 8.0 0.00 0.00 0.00 69 1013.8
20260503042539 42 290 3.0 9.0 0.00 0.00 0.00 69 1013.8
20260503042039 42 290 3.0 9.0 0.00 0.00 0.00 68 1013.8
20260503041552 42 276 3.0 9.0 0.00 0.00 0.00 69 1013.9
20260503041042 42 303 4.0 9.0 0.00 0.00 0.00 69 1013.8
20260503040538 42 280 4.0 8.0 0.00 0.00 0.00 70 1013.9
20260503040047 42 290 4.0 8.0 0.00 0.00 0.00 69 1013.9
20260503035541 43 271 4.0 7.0 0.00 0.01 0.00 69 1013.9
20260503035040 43 272 5.0 7.0 0.00 0.01 0.00 69 1013.9
20260503034548 43 289 4.0 7.0 0.00 0.01 0.00 68 1013.9
20260503034039 43 290 2.0 5.0 0.00 0.01 0.00 68 1013.9
20260503033537 43 290 3.0 5.0 0.00 0.01 0.00 68 1013.9
20260503033051 43 301 2.0 8.0 0.00 0.01 0.00 68 1013.9
20260503032538 42 301 2.0 8.0 0.00 0.01 0.00 69 1014.0
20260503032038 43 263 2.0 6.0 0.00 0.01 0.00 69 1014.0
20260503031606 43 317 1.0 4.0 0.00 0.01 0.00 68 1014.0
20260503031039 43 317 2.0 5.0 0.00 0.01 0.00 68 1013.7
20260503030539 44 50 1.0 10.0 0.00 0.01 0.00 67 1013.7
20260503030050 44 327 4.0 10.0 0.00 0.01 0.00 67 1013.8
20260503025538 44 328 4.0 10.0 0.00 0.01 0.00 67 1013.9
20260503025038 44 315 3.0 10.0 0.00 0.01 0.00 67 1014.0
20260503024550 45 316 5.0 10.0 0.00 0.01 0.00 66 1014.0
20260503024041 45 295 4.0 8.0 0.00 0.01 0.00 67 1014.1
20260503023537 45 281 5.0 8.0 0.00 0.01 0.00 66 1014.3
20260503023047 45 300 2.0 9.0 0.00 0.01 0.00 66 1014.2
20260503022541 45 288 4.0 9.0 0.00 0.01 0.00 66 1014.4
20260503022038 45 308 3.0 8.0 0.00 0.01 0.00 66 1014.5
20260503021550 45 257 4.0 9.0 0.00 0.01 0.00 66 1014.5
20260503021041 45 263 5.0 9.0 0.00 0.01 0.00 66 1014.4
20260503020541 45 295 5.0 9.0 0.00 0.01 0.00 65 1014.3
20260503020059 44 267 4.0 8.0 0.00 0.01 0.00 66 1014.3
20260503015539 44 286 2.0 7.0 0.00 0.01 0.00 67 1014.3
20260503015039 44 281 3.0 7.0 0.00 0.01 0.00 67 1014.3
20260503014554 44 292 3.0 6.0 0.00 0.01 0.00 68 1014.3
20260503014038 44 319 3.0 8.0 0.00 0.01 0.00 68 1014.1
20260503013538 45 319 4.0 10.0 0.00 0.01 0.00 67 1014.0
20260503013049 45 317 5.0 10.0 0.00 0.01 0.00 67 1014.0
20260503012541 45 327 4.0 8.0 0.00 0.01 0.00 67 1014.0
20260503012042 45 335 4.0 10.0 0.00 0.01 0.00 65 1014.0
20260503011604 46 320 5.0 10.0 0.00 0.01 0.00 65 1013.9
20260503011038 46 315 6.0 11.0 0.00 0.01 0.00 64 1013.9
20260503010544 46 340 5.0 11.0 0.00 0.01 0.00 65 1013.9
20260503010051 46 304 7.0 12.0 0.00 0.01 0.00 65 1013.8
20260503005541 46 323 7.0 12.0 0.00 0.01 0.00 65 1013.7
20260503005037 46 332 6.0 12.0 0.00 0.01 0.00 65 1013.7
20260503004550 46 325 3.0 8.0 0.00 0.01 0.00 65 1013.6
20260503004038 47 302 5.0 11.0 0.00 0.01 0.00 64 1013.6
20260503003539 47 292 6.0 13.0 0.00 0.01 0.00 63 1013.6
20260503003050 47 319 7.0 14.0 0.00 0.01 0.00 63 1013.4
20260503002541 47 317 10.0 14.0 0.00 0.01 0.00 63 1013.4
20260503002041 47 313 6.0 12.0 0.00 0.01 0.00 64 1013.4
20260503001553 48 302 8.0 12.0 0.00 0.01 0.00 62 1013.4
20260503001042 48 312 8.0 16.0 0.00 0.01 0.00 62 1013.3
20260503000541 48 294 10.0 16.0 0.00 0.01 0.00 61 1013.4
20260502235538 49 312 11.0 19.0 0.00 0.01 0.00 61 1013.2
20260502235038 49 317 12.0 19.0 0.00 0.01 0.00 58 1013.1
20260502234550 50 297 11.0 16.0 0.00 0.01 0.00 57 1013.0
20260502234042 50 321 8.0 16.0 0.00 0.01 0.00 57 1013.0
20260502233540 50 302 10.0 16.0 0.00 0.01 0.00 55 1012.9
20260502233046 50 306 11.0 16.0 0.00 0.01 0.00 55 1012.8
20260502232540 50 333 10.0 16.0 0.00 0.01 0.00 54 1012.8
20260502232041 50 302 8.0 14.0 0.00 0.01 0.00 56 1012.7
20260502231612 50 308 6.0 12.0 0.00 0.01 0.00 55 1012.7
20260502231038 50 330 7.0 12.0 0.00 0.01 0.00 52 1012.6
20260502230538 51 319 9.0 12.0 0.00 0.01 0.00 54 1012.5
20260502230052 51 308 8.0 15.0 0.00 0.01 0.00 55 1012.5
20260502225541 51 311 9.0 15.0 0.00 0.01 0.00 52 1012.6
20260502225039 51 311 9.0 12.0 0.00 0.01 0.00 53 1012.5
20260502224558 52 311 6.0 11.0 0.00 0.01 0.00 53 1012.5
20260502224038 52 307 4.0 13.0 0.00 0.01 0.00 52 1012.4
20260502223538 52 308 8.0 13.0 0.00 0.01 0.00 49 1012.4
20260502223051 52 292 8.0 13.0 0.00 0.01 0.00 49 1012.4
20260502222538 52 295 8.0 13.0 0.00 0.01 0.00 51 1012.3
20260502222041 52 302 6.0 14.0 0.00 0.01 0.00 52 1012.4
20260502221554 52 300 9.0 14.0 0.00 0.01 0.00 50 1012.4
20260502221041 52 275 8.0 13.0 0.00 0.01 0.00 54 1012.2
20260502220541 52 321 7.0 14.0 0.00 0.01 0.00 53 1012.4